Lid_Strength_Index
-1 -1 -0 -0 1 3 3 4 5 4 3 2 2 2 2 3 3 5 7 6 7 9 7 6 6 8 7 8 10 9 10 9 11 12 12 12 13 12 12 12 13 13 14 15 14 16 17 9 9 11 10 10 9 10
-1 -1 -0 -0 0 2 3 4 5 5 3 3 2 2 2 3 3 5 9 6 6 8 7 6 6 6 6 6 7 8 9 8 10 10 11 11 12 12 13 15 10 13 11 13 13 13 10 9 9 9 9 9 10 10
-1 -1 -0 -0 1 2 3 4 5 5 3 3 2 2 2 3 2 4 9 7 6 8 7 7 8 6 6 5 5 7 7 6 7 8 10 10 12 11 13 12 12 10 10 13 12 11 10 9 8 8 8 9 8 8
-1 -1 -0 0 0 1 3 4 5 5 4 3 2 2 2 3 2 4 7 6 6 7 10 8 6 7 5 6 5 5 6 7 7 8 10 10 11 10 11 11 11 10 10 12 12 11 9 9 8 8 8 8 8 8
-1 -1 -0 0 0 1 4 4 5 5 4 3 2 2 2 3 2 5 6 7 5 7 10 9 8 7 7 7 7 7 7 8 9 8 9 10 10 10 11 11 11 10 10 11 11 10 9 10 8 7 8 8 8 8
-1 -1 -0 0 0 2 4 4 4 4 4 2 2 2 3 3 3 6 9 6 6 7 8 10 8 8 7 7 7 7 8 9 9 9 10 10 10 11 12 12 9 9 9 9 9 8 9 8 7 6 8 8 8 8
-1 -0 -0 0 1 3 4 4 4 4 4 3 2 3 3 4 6 8 8 7 5 5 8 10 10 8 8 8 8 8 9 10 9 11 10 11 11 11 13 12 9 8 8 8 7 7 8 7 8 8 8 8 7 7
-1 -0 -0 0 1 3 4 4 4 4 4 3 3 3 4 4 5 7 7 5 5 5 7 11 12 10 8 10 10 9 10 10 10 11 11 11 11 13 14 11 9 8 7 8 7 7 8 7 8 9 8 8 8 8
-1 -0 -0 0 2 3 4 4 4 4 4 3 3 4 5 7 9 8 3 4 4 6 9 11 12 13 9 10 10 9 11 12 11 11 11 11 13 14 11 10 8 8 8 8 7 7 7 8 8 9 9 9 9 8
-1 -0 -0 0 2 3 4 4 4 4 3 4 4 7 10 8 4 3 6 7 7 8 8 10 10 10 9 11 10 10 11 12 13 12 11 13 13 11 10 9 7 7 7 6 8 9 8 8 9 10 9 9 8 7
-1 -1 -0 0 3 3 4 4 4 4 3 5 8 10 8 3 7 8 10 10 10 11 10 9 10 10 8 10 12 11 12 12 13 12 12 14 14 12 9 8 7 7 6 7 7 7 7 8 9 10 9 8 8 7
-1 -1 -0 0 3 3 4 4 4 5 5 6 7 6 7 7 8 10 12 12 12 12 11 10 10 8 10 9 10 11 12 12 14 12 13 14 12 11 9 8 7 7 7 7 7 7 7 8 9 10 9 8 9 7
-1 -1 -0 1 3 4 4 4 4 4 4 5 6 8 9 11 14 13 15 15 14 12 11 10 10 8 9 9 11 11 12 14 11 13 13 12 11 10 8 8 7 7 7 7 7 7 8 8 9 9 8 7 7 7
-0 -0 0 2 3 4 4 4 4 4 5 8 10 13 13 14 13 14 13 13 12 11 10 8 10 9 10 10 11 12 12 12 15 15 13 11 11 10 8 7 8 8 8 8 8 8 8 9 9 8 7 7 7 7
-0 -0 -0 2 3 3 4 4 3 5 7 10 10 14 13 12 12 11 11 11 11 8 8 9 10 10 12 12 12 12 14 15 14 14 12 11 10 8 8 8 8 8 8 8 8 9 9 9 9 8 7 7 7 7
-0 -0 1 3 3 3 3 3 5 5 7 9 10 12 12 13 13 12 11 11 9 8 9 10 12 12 13 12 13 13 13 14 12 11 10 10 8 8 8 8 8 8 8 9 9 9 9 9 10 8 7 7 7 7
0 3 0 3 3 3 3 6 7 8 8 9 11 10 11 12 11 11 10 9 8 7 10 11 12 12 12 13 13 12 12 11 11 10 11 9 8 8 8 8 8 8 9 9 9 9 9 8 8 8 8 7 7 7
3 1 1 4 3 4 5 6 8 9 10 10 11 11 11 10 10 10 9 8 9 10 10 11 11 12 13 13 13 11 10 11 11 11 10 8 8 8 7 8 8 9 9 9 9 9 9 8 9 8 8 7 7 8
1 1 1 3 3 5 9 8 7 10 10 10 10 10 10 9 8 7 8 9 9 8 9 10 11 13 12 11 11 10 10 10 11 10 10 8 7 7 8 8 8 9 9 9 10 10 9 8 8 7 7 7 8 7
0 1 2 3 3 6 8 9 7 10 11 10 10 10 10 9 9 9 9 9 9 9 10 11 11 11 10 9 9 9 10 9 8 9 9 9 8 8 8 8 9 9 9 9 10 10 10 10 9 7 7 7 8 8
2 3 3 3 4 5 7 9 10 9 10 11 11 11 11 10 10 11 10 10 10 11 11 10 9 9 9 9 9 8 8 7 7 7 7 8 8 8 8 8 9 9 9 9 10 10 11 11 10 8 8 7 7 7
3 2 4 4 6 6 8 8 9 9 10 11 11 12 13 13 12 12 11 10 10 10 9 9 9 8 9 9 9 8 8 8 7 7 8 8 8 8 8 8 9 9 9 9 9 10 10 10 10 9 8 8 8 7
3 3 5 6 8 9 10 6 9 10 12 12 12 13 13 12 11 10 10 9 9 9 8 8 9 9 9 9 8 8 7 7 7 6 6 7 7 7 8 8 8 8 8 9 8 9 9 11 11 9 9 9 7 7
3 6 8 9 9 11 8 10 9 10 11 12 12 12 12 11 10 11 11 10 9 8 9 9 8 9 9 9 9 9 9 8 8 7 6 6 8 8 7 7 6 6 7 7 8 9 9 9 11 10 9 9 8 8
8 8 9 11 8 9 10 10 10 11 12 11 11 12 11 10 11 12 12 11 10 10 10 9 9 8 9 10 10 9 8 7 7 8 7 7 8 8 8 7 7 6 6 7 8 9 9 9 9 9 9 9 9 9
11 8 10 9 9 10 10 11 11 11 11 11 11 10 10 11 12 13 13 11 10 9 9 9 9 10 10 9 10 9 9 7 7 7 8 6 6 6 7 8 9 8 7 7 7 7 8 8 8 8 8 8 12 9
11 10 9 7 8 9 11 10 10 11 12 12 13 12 12 12 12 13 11 10 10 9 8 8 8 9 9 9 9 8 8 7 6 6 6 6 6 5 6 7 8 7 6 7 7 7 7 7 7 7 7 7 7 7
8 9 10 10 10 10 11 11 12 12 13 12 12 13 13 13 14 12 11 10 9 8 8 8 8 7 8 8 8 8 8 7 7 7 7 7 6 6 6 6 6 13 6 6 7 7 7 7 7 7 7 7 6 4
10 9 10 11 11 11 12 12 12 12 11 12 14 13 13 13 11 11 10 10 9 8 9 9 9 8 8 8 8 8 7 7 8 8 9 9 8 7 6 6 7 7 6 7 13 10 7 7 7 6 6 5 5 4
10 9 10 11 12 13 13 12 12 12 12 12 11 11 11 10 9 9 10 9 8 8 8 8 8 8 8 8 9 8 8 7 7 8 9 9 8 7 6 6 6 6 6 7 8 9 14 10 9 7 6 5 5 4
9 9 10 11 12 12 11 11 11 11 11 12 12 12 11 10 8 8 8 8 7 7 8 8 8 8 8 9 9 9 9 7 7 6 6 6 6 6 5 5 5 5 6 6 7 7 7 8 7 6 6 6 5 5
10 10 11 12 12 10 10 11 12 12 13 13 12 10 10 10 11 10 8 7 8 8 10 8 8 8 8 8 8 8 10 7 7 6 6 7 7 7 7 6 6 6 6 7 7 7 7 6 6 5 5 5 5 4
10 10 10 11 12 12 11 11 12 13 12 13 12 12 11 11 12 10 8 7 7 8 8 8 8 8 8 8 8 8 9 7 9 13 13 13 13 11 8 7 6 6 6 7 6 6 5 5 5 5 5 4 4 4